sat.trackr.live / text

‹ back to catalog

KINEIS-5A

NORAD 62084 · 2024-219D

PAYLOAD ACTIVE UNKNOWN

§ Identity

Operator
Country
FR
Launch date
2024-11-25
Launch site
RLLB
Launch vehicle
Mass (kg)
RCS (m²)

External: N2YO · Heavens-Above · Gunter

§ Orbital elements

Epoch: 2026-09-22T22:42:19.768032Z

Period
97.81 min
Inclination
97.9056°
Eccentricity
0.0004435
Mean motion
14.72242977 rev/d
Perigee alt
650.8 km
Apogee alt
657.0 km
Semi-major
7,032.1 km
B*
-3.4304e-4
RAAN
62.4419°
Arg perigee
12.4211°
Mean anomaly
347.7105°
Rev number
9,815

§ Raw data

KINEIS-5A1 62084U 24219D   26265.94606213 -.00002212  00000+0 -34304-3 0  99952 62084  97.9056  62.4419 0004435  12.4211 347.7105 14.72242977 98156

JSON: /api/v1/satellites/62084 · /tle

For live sub-satellite position, see the globe view (requires WebGL).

§ Visibility from observer

Set your observer location to see the next 7 days of passes ≥ 10°. The values pass through the URL so the page stays shareable.

No JS? Fill the form by hand. The geolocation button needs JavaScript.

§ Radio — SatNOGS DB

ModeDescriptionDownlinkUplink
FM S-band telemetry 2.265 GHz
BPSK PMT-A3 Telemetry (ARGOS-3) 400.638 MHz

2 transmitters · refreshed weekly from db.satnogs.org